Lobo

Go HERE for most recent data if this page is not up to date.

Jump to table bottom
Date/Time Temp deg F RH % 24 Hr Snow (in) Snow Depth (in) H2O (in)
03/02 17:00 14.3 84 -0.1 52.7 0.02
03/02 16:00 14.4 82 5.2 52.5 0.06
03/02 15:00 18.5 88 3.9 51.7 0.12
03/02 14:00 22.2 91 1.8 49.6 0.00
03/02 13:00 21.2 74 1.6 49.4 0.02
03/02 12:00 21.4 89 1.4 49.4 0.04
03/02 11:00 20.7 100 0.3 48.2 0.00
03/02 10:00 19.6 96 0.1 47.9 0.00
03/02 09:00 18.1 100 0.0 47.8 0.01
03/02 08:00 17.6 100 0.0 48.2 0.00
03/02 07:00 17.4 100 0.0 48.2 0.00
03/02 06:00 17.5 99 0.0 48.4 0.00
03/02 05:00 17.5 99 0.0 48.5 0.00
03/02 04:00 17.3 100 0.0 48.6 0.00
03/02 03:00 17.0 100 0.0 48.6 0.00
03/02 02:00 16.6 99 0.0 48.9 0.00
03/02 01:00 16.3 95 0.0 49.0 0.00
03/02 00:00 16.1 100 0.0 49.2 0.00
03/01 23:00 16.6 91 -0.0 49.2 0.00
03/01 22:00 17.1 87 -0.0 49.4 0.00
03/01 21:00 17.4 84 0.0 49.6 0.00
03/01 20:00 18.1 81 -0.0 49.7 0.00
03/01 19:00 19.2 71 -0.0 49.9 0.00
03/01 18:00 20.5 70 -0.0 50.1 0.00
03/01 17:00 21.5 71 -0.0 50.3 0.00
03/01 16:00 21.8 72 9.2 50.4 0.00
03/01 15:00 22.4 75 9.3 50.6 0.00
03/01 14:00 20.4 55 9.6 50.9 0.00
03/01 13:00 19.5 65 9.8 51.1 0.00
03/01 12:00 18.7 63 10.0 51.5 0.01
03/01 11:00 17.3 85 10.1 51.1 0.02
03/01 10:00 17.5 75 10.1 51.6 0.01
03/01 09:00 16.4 78 9.9 51.4 0.03
03/01 08:00 15.9 86 10.4 52.0 0.06
03/01 07:00 16.7 85 9.4 50.7 0.06
03/01 06:00 18.8 88 7.8 48.7 0.08
03/01 05:00 20.8 98 5.2 46.3 0.14
03/01 04:00 21.7 91 1.6 42.5 0.15
03/01 03:00 24.4 87 0.2 41.0 0.07
03/01 02:00 24.8 76 0.0 41.1 0.00
03/01 01:00 25.7 75 0.0 41.2 0.00
03/01 00:00 26.1 72 0.0 41.2 0.00
.